Location: Tehachapi Municipal Airport
(35.1300°N, 118.4400°W)
Time: 09:54:30
(UTC-08:00)

Daily predictions for brighter satellites

Satellite Brightness Start Highest point End
(mag) Time Altitude Azimuth Time Altitude Azimuth Time Altitude Azimuth
Cosmos 2366 rocket 4.3 16:56:40 10° N 17:02:43 45° E 17:08:41 10° SSE
Cosmos 2218 Rocket 4.1 17:02:47 10° N 17:08:58 59° E 17:15:02 10° SSE
SPOT 3 Rocket 3.6 17:08:48 10° SSE 17:13:54 60° ENE 17:19:00 10° N
USA 234 3.9 17:08:47 10° NE 17:15:06 53° NW 17:21:24 10° WSW
COSMOS 2487 4.2 17:13:14 10° NNE 17:15:13 14° ENE 17:17:12 10° E
SMAP 3.1 17:13:05 10° SSE 17:17:39 62° ENE 17:22:15 10° N
USA 32 4.3 17:19:20 10° S 17:24:32 76° W 17:29:46 10° N
Cosmos 1812 2.8 17:23:37 10° S 17:27:28 85° W 17:31:21 10° N
NOSS 3-3 (A) 4.1 17:21:59 10° SSW 17:28:06 83° WNW 17:34:41 10° NNE
NOSS 3-3 (C) 4.1 17:22:05 10° SSW 17:28:12 84° WNW 17:34:47 10° NNE
Cosmos 494 Rocket 4.0 17:23:43 10° NNW 17:28:57 67° ENE 17:34:10 10° SSE
ASTRO F (AKARI) 4.1 17:29:02 10° NNE 17:32:10 70° ESE 17:35:18 10° S
Cosmos 1238 Rocket 2.8 17:29:28 10° SSW 17:32:21 54° W 17:35:18 10° N
Okean 1 3.3 17:28:25 10° S 17:32:26 74° E 17:36:30 10° N
Cosmos 1544 Rocket 3.8 17:28:12 10° N 17:32:41 77° W 17:37:07 10° S
BREEZE M DEB (TANK) 3.4 17:21:33 10° SW 17:34:11 87° SE 17:37:17 15° NE
COSMO-SKYMED 1 3.0 17:31:22 10° NNE 17:35:30 42° E 17:39:36 10° S
Cosmos 1844 Rocket 4.4 17:31:21 10° WSW 17:36:16 31° WNW 17:41:14 10° N
IDEFIX/ARIANE 42P 2.6 17:31:37 10° SSE 17:36:49 84° WSW 17:42:02 10° NNW
CZ-2C R/B 2.7 17:33:39 10° S 17:38:35 77° W 17:43:42 10° NNW
ATLAS 2AS CENTAUR R/B 3.0 17:32:07 10° NNW 17:40:11 89° ENE 17:47:36 10° SSE
Cosmos 1346 Rocket 2.6 17:41:44 10° S 17:45:38 71° E 17:49:30 10° NNE
COSMOS 2441 4.3 17:43:02 10° SSE 17:47:50 68° ENE 17:52:42 10° N
CORIOLIS 4.4 17:43:25 10° S 17:48:49 74° WSW 17:54:13 10° NNW
Cosmos 1536 Rocket 4.2 17:45:32 10° SSW 17:49:55 60° W 17:54:22 10° N
Tiangong 1 1.6 17:52:07 10° W 17:55:02 45° NNW 17:56:08 30° NNE
Cosmos 1025 Rocket 3.7 17:53:39 10° SSE 17:57:30 31° E 17:58:55 26° NE
Nadezhda 3 Rocket 3.9 17:51:22 10° S 17:57:30 72° E 18:03:45 10° N
YAOGAN 1 3.7 17:53:48 10° S 17:57:57 47° W 18:02:09 10° NNW
Cosmos 2297 3.6 17:53:43 10° SSW 17:59:21 81° ESE 18:04:43 11° NNE
Cosmos 921 Rocket 2.9 17:57:08 10° S 18:01:18 65° ESE 18:04:22 18° NNE
CZ-3B DEB 3.7 18:05:54 10° W 18:09:43 29° NNW 18:16:19 13° NE
Cosmos 375 4.1 18:08:01 10° NNW 18:12:12 84° ENE 18:15:59 10° SSE
Cosmos 2278 Rocket 3.6 18:07:19 10° SW 18:12:27 35° WNW 18:17:38 10° N
CZ-4 R/B 4.3 18:10:51 10° SW 18:13:55 20° W 18:16:58 10° NW
Meteor 2-21 Rocket 4.3 18:10:49 10° N 18:17:01 81° E 18:23:09 10° S
DMSP B5D1-3 4.5 18:12:53 10° NNE 18:18:03 87° WNW 18:23:10 10° SSW
Genesis I 3.0 18:14:45 10° NNW 18:18:42 84° ENE 18:21:04 23° SSE
Meteor 2-16 Rocket 4.3 18:14:15 10° N 18:20:19 69° E 18:26:22 10° SSE
NOAA 12 4.1 18:15:27 10° SSE 18:20:36 56° ENE 18:25:45 10° N
Cosmos 1975 4.4 18:18:02 10° NNW 18:21:47 36° W 18:25:28 10° SSW
NOSS 2-1 (D) 3.5 18:19:31 10° SW 18:23:17 67° WNW 18:24:38 38° NNE
SKYMED 2 4.4 18:19:22 10° N 18:23:34 49° WNW 18:27:44 10° SSW
NOSS 2-1 (C) 3.5 18:20:11 10° SW 18:23:58 68° WNW 18:25:17 39° NNE
ATLAS 3B CENTAUR R/B 3.9 18:06:08 10° WSW 18:26:28 60° S 18:31:11 26° ESE
Intercosmos 25 3.0 18:24:24 16° NNW 18:26:50 75° W 18:30:20 10° S
Okean 1-7 Rocket 4.0 18:23:44 10° SSW 18:28:13 65° W 18:32:22 12° N
Cosmos 1484 Rocket 4.0 18:25:34 10° S 18:29:08 41° W 18:32:41 10° NNW
Meteor 1-19 Rocket 4.4 18:24:44 10° SSW 18:30:30 78° W 18:36:22 10° N
Delta 2 Rocket 3.1 18:27:09 10° W 18:31:02 90° S 18:31:17 78° E
Cosmos 1743 2.7 18:27:12 10° N 18:31:04 81° W 18:34:54 10° S
METEOR-M 4.0 18:27:39 10° SSE 18:32:53 63° ENE 18:38:10 10° N
FALCON 9 R/B 3.3 18:13:11 10° W 18:37:12 86° S 18:40:12 41° E
Cosmos 1833 Rocket 2.5 18:34:42 10° NNW 18:40:22 74° ENE 18:44:20 20° SSE
Cosmos 2082 Rocket 2.1 18:35:31 10° NNW 18:41:13 89° ENE 18:46:54 10° SSE
Meteor 1-28 Rocket 4.2 18:40:43 28° NNW 18:42:15 45° WNW 18:45:52 10° SSW
NOSS 2-1 (E) 4.2 18:38:56 10° SW 18:42:38 46° NW 18:43:19 41° NNW
Cosmos 2056 Rocket 3.4 18:41:03 10° SSW 18:46:26 84° ESE 18:47:23 62° NNE
OAO 1 4.5 18:41:13 10° W 18:46:42 76° SSW 18:47:29 64° SE
GEOS 3 Rocket 3.4 18:52:29 73° SE 18:52:59 87° NE 18:58:08 10° NNW
Cosmos 1934 Rocket 3.9 18:49:03 10° N 18:55:17 90° ENE 19:01:35 10° S
Meteor 1-23 Rocket 4.4 18:52:38 10° SSW 18:58:21 71° W 19:01:01 33° N
Cosmos 1624 Rocket 4.2 18:54:56 10° SSW 19:00:04 65° WNW 19:00:54 56° NNW
NOSS 3-4 (A) 4.0 19:08:53 10° NNW 19:14:40 57° N 19:14:40 57° N
NOSS 3-4 (C) 4.0 19:08:59 10° NNW 19:14:42 56° N 19:14:42 56° N
Cosmos 2369 Rocket 4.2 19:13:12 10° S 19:14:19 16° S 19:14:19 16° S
BREEZE M DEB (TANK) 4.3 19:26:00 10° NW 20:00:50 - SE 19:30:18 60° N
